sat.trackr.live / text

‹ back to catalog

STARLINK-32782

NORAD 62821 · 2025-018R

PAYLOAD ACTIVE UNKNOWN

§ Identity

Operator
Country
US
Launch date
2025-01-24
Launch site
AFWTR
Launch vehicle
Mass (kg)
RCS (m²)

Purposes: comms

External: N2YO · Heavens-Above · Gunter

§ Orbital elements

Epoch: 2026-05-25T04:41:38.257152Z

Period
94.11 min
Inclination
53.1581°
Eccentricity
0.0001448
Mean motion
15.30204099 rev/d
Perigee alt
474.2 km
Apogee alt
476.2 km
Semi-major
6,853.3 km
B*
5.9733e-4
RAAN
314.0966°
Arg perigee
104.3509°
Mean anomaly
255.7653°
Rev number
7,489

§ Raw data

STARLINK-327821 62821U 25018R   26145.19558168  .00017376  00000+0  59733-3 0  99992 62821  53.1581 314.0966 0001448 104.3509 255.7653 15.30204099 74896

JSON: /api/v1/satellites/62821 · /tle

For live sub-satellite position, see the globe view (requires WebGL).

§ Visibility from observer

Set your observer location to see the next 7 days of passes ≥ 10°. The values pass through the URL so the page stays shareable.

No JS? Fill the form by hand. The geolocation button needs JavaScript.